Location: Loma Linda
(34.0483°N, 117.2612°W)
Time: 13:44:04
(UTC+00:00)

Daily predictions for brighter satellites

Satellite Brightness Start Highest point End
(mag) Time Altitude Azimuth Time Altitude Azimuth Time Altitude Azimuth
CZ-3 Stage 3 3.9 12:06:43 53° WSW 12:10:04 77° S 12:47:27 10° ESE
CZ-3C R/B 3.8 12:12:31 10° SSE 12:14:25 13° SE 12:17:31 10° ESE
SL-16 R/B 4.4 12:09:39 10° S 12:10:56 16° SSW 12:10:56 16° SSW
Cosmos 1634 Rocket 4.1 12:19:04 58° SSW 12:19:04 58° SSW 12:24:02 10° S
COSMOS 2406 4.4 12:13:02 10° S 12:18:15 40° ESE 12:23:29 10° NE
Atlas Centaur 2 4.4 12:26:00 20° SSW 12:26:21 20° SSW 12:31:51 10° SSE
Cosmos 2082 Rocket 2.0 12:31:41 75° NW 12:31:41 75° NW 12:37:08 10° NNE
SL-8 R/B 4.3 12:32:41 48° NNE 12:32:53 48° NNE 12:37:28 10° ESE
COSMOS 2455 4.4 12:29:40 13° N 12:34:10 31° NE 12:39:26 10° ESE
Cosmos 2279 Rocket 3.8 12:32:30 30° NNW 12:35:46 80° W 12:42:00 10° S
Cosmos 841 Rocket 3.6 12:33:25 10° S 12:38:34 72° ESE 12:43:47 10° NNE
Cosmos 1346 Rocket 3.2 12:39:26 10° S 12:47:31 - NNE 12:42:28 53° SE
Cosmos 1354 Rocket 4.1 12:47:53 53° WSW 12:47:53 53° WSW 12:52:43 10° S
Cosmos 2180 Rocket 4.4 12:41:47 10° N 12:48:04 89° E 12:54:25 10° S
Delta 2 Rocket 4.0 12:49:48 35° ENE 12:49:48 35° ENE 12:51:44 10° E
CZ-4 R/B 3.9 12:44:39 10° NNE 12:49:16 72° ESE 12:53:51 10° S
FengYun 1-2 T 4.1 12:43:52 10° N 12:49:29 66° WNW 12:55:03 10° SSW
Cosmos 1980 Rocket 2.0 12:57:59 30° NNW 13:00:51 74° WSW 13:06:23 10° SSE
IRS-1D 3.3 12:58:14 10° N 13:03:13 70° WNW 13:08:17 10° SSW
Tiangong -0.5 13:03:55 26° NNE 13:03:55 26° NNE 13:06:36 10° ENE
Cosmos 2369 4.1 12:58:39 12° NNW 13:03:51 62° ENE 13:09:25 10° SSE
Cosmos 1898 Rocket 4.1 13:00:30 10° N 13:05:40 58° ENE 13:10:50 10° SSE
Cosmos 1892 Rocket 3.5 13:11:22 10° S 13:15:41 83° E 13:20:04 10° N
Helios 1A Rocket 3.3 13:13:17 10° SSE 13:16:30 48° ENE 13:19:45 10° N
Cosmos 2333 Rocket 4.2 13:19:09 10° N 13:23:51 25° ENE 13:28:31 10° ESE
NOAA 12 4.2 13:18:54 10° N 13:23:59 50° WNW 13:29:02 10° SSW
Aureole 1 Rocket 4.3 13:17:44 10° NNW 13:24:55 70° WSW 13:32:17 10° S
Cosmos 1092 Rocket 4.1 13:18:56 10° S 13:25:14 80° E 13:31:30 10° N
NOSS 2-1 (D) 4.3 13:25:53 12° NNW 13:29:24 52° ENE 13:34:41 10° SE
Nadezhda 4 Rocket 4.3 13:25:05 10° SSW 13:31:00 42° W 13:36:55 10° N
Cosmos 1937 Rocket 3.7 13:26:17 10° NNW 13:31:24 73° ENE 13:36:30 10° SSE
USA 59 Rocket 0.6 13:29:10 13° NNW 13:32:44 64° ENE 13:38:16 10° SE
Cosmos 2360 Rocket 4.5 13:29:01 10° NNE 13:33:01 20° ENE 13:37:00 10° ESE
Cosmos 1933 3.8 13:36:36 15° NNW 13:39:14 34° W 13:42:41 10° SSW
Cosmos 372 Rocket 4.1 13:34:34 10° NNW 13:39:22 50° WSW 13:44:14 10° S
SKYMED 2 4.1 13:40:19 10° SSW 13:44:19 37° W 13:48:21 10° NNW
Meteor 2-3 Rocket 4.1 13:41:24 10° SSW 13:46:51 44° WNW 13:52:18 10° N
Cosmos 1814 Rocket 4.3 13:43:10 10° S 13:48:19 73° ESE 13:53:34 10° NNE
COSMO-SKYMED 1 2.7 13:45:57 10° S 13:49:54 47° W 13:53:54 10° NNW
Meteor 1-26 Rocket 4.4 13:47:28 10° N 13:53:02 77° E 13:58:45 10° SSE
Cosmos 2058 Rocket 3.2 13:49:21 10° N 13:53:47 80° E 13:58:10 10° S
Cosmos 2322 Rocket 3.8 13:49:38 10° N 13:54:46 34° ENE 13:59:51 10° SE
Cosmos-2242 3.2 13:50:36 10° N 13:54:49 74° E 13:58:59 10° S
CBERS-1 4.0 13:49:52 10° N 13:54:58 80° WNW 14:00:02 10° SSW
NOSS 2-1 (C) 3.7 13:52:30 10° NNW 13:56:29 89° WSW 14:02:06 10° SSE
USA 267 4.1 13:51:06 10° NE 13:57:29 55° SE 14:03:51 10° SSW
SWAS 4.3 13:56:05 10° NNW 14:00:06 67° WSW 14:04:05 10° SSE
BREEZE M DEB (TANK) 2.5 13:59:30 13° W 14:01:06 25° NNW 14:03:46 10° NE
PKM 4.1 13:59:16 12° WNW 14:01:28 33° SW 14:04:14 10° SSE
COSMOS 2406 4.2 13:58:04 10° WSW 14:02:36 24° WNW 14:07:08 10° N
SMAP 3.3 13:59:25 10° NNE 14:04:05 77° ESE 14:08:43 10° S
ATLAS 2AS CENTAUR R/B 3.7 13:57:14 10° S 14:04:10 55° ESE 14:10:55 10° NE
Cosmos 2237 4.4 13:59:10 10° NNW 14:04:44 56° WSW 14:10:15 10° S
BREEZE-M DEB (TANK) 3.1 13:58:56 10° WNW 14:04:50 68° SW 14:07:49 10° SE
Thor Agena Rocket 3.6 14:00:22 10° NNE 14:05:26 87° ESE 14:10:27 10° SSW
IRIDIUM 106 4.4 14:00:45 10° S 14:05:58 88° E 14:11:13 10° N
BREEZE-M DEB (TANK) 4.4 14:04:18 10° NNW 14:07:26 27° NNE 14:14:24 10° E
Landsat 7 4.2 14:05:37 10° NNE 14:10:16 70° ESE 14:14:53 10° S
CZ-2D R/B 2.9 14:11:05 10° NNE 14:14:16 77° E 14:17:25 10° S
